| time (UTC) | temp C | wind direction | speed KPH | gust KPH | rain 1hr cm | rain 24hr cm | rain mn cm | humidity % | barometer mb |
| 20260831120114 | 16 | 236 | 1.6 | 11.3 | 0.00 | 0.00 | 0.00 | 86 | 1020.5 |
| 20260831114611 | 17 | 240 | 4.8 | 17.7 | 0.00 | 0.00 | 0.00 | 80 | 1020.3 |
| 20260831113104 | 17 | 250 | 1.6 | 12.9 | 0.00 | 0.00 | 0.00 | 78 | 1020.1 |
| 20260831111600 | 17 | 294 | 3.2 | 11.3 | 0.00 | 0.00 | 0.00 | 77 | 1020.0 |
| 20260831110111 | 17 | 279 | 1.6 | 11.3 | 0.00 | 0.00 | 0.00 | 78 | 1019.9 |
| 20260831104613 | 17 | 272 | 3.2 | 8.0 | 0.00 | 0.00 | 0.00 | 77 | 1019.9 |
| 20260831103104 | 17 | 248 | 0.0 | 12.9 | 0.00 | 0.00 | 0.00 | 77 | 1019.8 |
| 20260831101604 | 17 | 259 | 3.2 | 12.9 | 0.00 | 0.00 | 0.00 | 76 | 1019.7 |
| 20260831100124 | 17 | 247 | 3.2 | 12.9 | 0.00 | 0.00 | 0.00 | 77 | 1019.6 |
| 20260831094602 | 17 | 256 | 3.2 | 6.4 | 0.00 | 0.00 | 0.00 | 78 | 1019.5 |
| 20260831093108 | 18 | 273 | 3.2 | 12.9 | 0.00 | 0.00 | 0.00 | 77 | 1019.3 |
| 20260831091604 | 18 | 318 | 1.6 | 8.0 | 0.00 | 0.00 | 0.00 | 77 | 1019.0 |
| 20260831090107 | 18 | 227 | 3.2 | 14.5 | 0.00 | 0.00 | 0.00 | 74 | 1018.9 |
| 20260831084611 | 18 | 255 | 3.2 | 11.3 | 0.00 | 0.00 | 0.00 | 71 | 1018.8 |
| 20260831083106 | 19 | 331 | 3.2 | 9.7 | 0.00 | 0.00 | 0.00 | 67 | 1018.7 |
| 20260831081602 | 20 | 271 | 1.6 | 14.5 | 0.00 | 0.00 | 0.00 | 66 | 1018.6 |
| 20260831080108 | 20 | 244 | 6.4 | 16.1 | 0.00 | 0.00 | 0.00 | 64 | 1018.8 |
| 20260831074605 | 20 | 304 | 3.2 | 12.9 | 0.00 | 0.00 | 0.00 | 67 | 1018.8 |
| 20260831073104 | 20 | 282 | 4.8 | 14.5 | 0.00 | 0.00 | 0.00 | 69 | 1018.8 |
| 20260831071558 | 20 | 266 | 6.4 | 17.7 | 0.00 | 0.00 | 0.00 | 68 | 1018.9 |
| 20260831070115 | 21 | 257 | 4.8 | 12.9 | 0.00 | 0.00 | 0.00 | 64 | 1018.7 |
| 20260831064607 | 21 | 252 | 4.8 | 17.7 | 0.00 | 0.00 | 0.00 | 66 | 1018.7 |
| 20260831063105 | 21 | 246 | 3.2 | 14.5 | 0.00 | 0.00 | 0.00 | 66 | 1018.6 |
| 20260831061604 | 21 | 292 | 4.8 | 16.1 | 0.00 | 0.00 | 0.00 | 66 | 1018.5 |
| 20260831060109 | 21 | 225 | 4.8 | 12.9 | 0.00 | 0.00 | 0.00 | 67 | 1018.4 |
| 20260831054606 | 22 | 291 | 3.2 | 9.7 | 0.00 | 0.00 | 0.00 | 66 | 1018.3 |
| 20260831053112 | 21 | 298 | 4.8 | 14.5 | 0.00 | 0.00 | 0.00 | 65 | 1018.2 |
| 20260831051604 | 21 | 250 | 4.8 | 14.5 | 0.00 | 0.00 | 0.00 | 68 | 1018.4 |
| 20260831050115 | 20 | 261 | 4.8 | 17.7 | 0.00 | 0.00 | 0.00 | 69 | 1018.5 |
| 20260831044612 | 21 | 308 | 3.2 | 14.5 | 0.00 | 0.00 | 0.00 | 72 | 1018.5 |
| 20260831043102 | 21 | 275 | 3.2 | 12.9 | 0.00 | 0.00 | 0.00 | 71 | 1018.3 |
| 20260831041605 | 21 | 337 | 3.2 | 12.9 | 0.00 | 0.00 | 0.00 | 70 | 1018.3 |
| 20260831040107 | 21 | 0 | 3.2 | 12.9 | 0.00 | 0.00 | 0.00 | 68 | 1018.4 |
| 20260831034608 | 21 | 273 | 1.6 | 11.3 | 0.00 | 0.00 | 0.00 | 72 | 1018.5 |
| 20260831033107 | 21 | 246 | 3.2 | 9.7 | 0.00 | 0.00 | 0.00 | 72 | 1018.6 |
| 20260831031604 | 21 | 312 | 1.6 | 12.9 | 0.00 | 0.00 | 0.00 | 72 | 1018.9 |
| 20260831030108 | 20 | 48 | 1.6 | 12.9 | 0.00 | 0.00 | 0.00 | 75 | 1018.8 |
| 20260831024626 | 20 | 327 | 1.6 | 9.7 | 0.00 | 0.00 | 0.00 | 74 | 1018.8 |
| 20260831023110 | 20 | 297 | 3.2 | 12.9 | 0.00 | 0.00 | 0.00 | 75 | 1018.9 |
| 20260831021605 | 19 | 336 | 3.2 | 11.3 | 0.00 | 0.00 | 0.00 | 76 | 1018.6 |
| 20260831020111 | 19 | 327 | 1.6 | 11.3 | 0.00 | 0.00 | 0.00 | 77 | 1018.6 |
| 20260831014624 | 18 | 273 | 1.6 | 8.0 | 0.00 | 0.00 | 0.00 | 77 | 1018.8 |
| 20260831013100 | 19 | 0 | 0.0 | 6.4 | 0.00 | 0.00 | 0.00 | 78 | 1018.8 |
| 20260831011617 | 18 | 304 | 1.6 | 6.4 | 0.00 | 0.00 | 0.00 | 79 | 1018.9 |
| 20260831010104 | 18 | 333 | 1.6 | 8.0 | 0.00 | 0.00 | 0.00 | 81 | 1018.8 |
| 20260831004604 | 17 | 263 | 0.0 | 4.8 | 0.00 | 0.00 | 0.00 | 86 | 1018.8 |
| 20260831003106 | 17 | 268 | 0.0 | 4.8 | 0.00 | 0.00 | 0.00 | 90 | 1018.8 |
| 20260831001605 | 16 | 0 | 0.0 | 0.0 | 0.00 | 0.00 | 0.00 | 93 | 1018.7 |
| 20260831000108 | 15 | 0 | 0.0 | 0.0 | 0.00 | 0.00 | 0.00 | 94 | 1018.6 |
| 20260830234607 | 14 | 0 | 0.0 | 0.0 | 0.00 | 0.00 | 0.00 | 93 | 1018.5 |
| 20260830233107 | 13 | 0 | 0.0 | 1.6 | 0.00 | 0.00 | 0.00 | 94 | 1018.5 |
| 20260830231610 | 13 | 0 | 0.0 | 0.0 | 0.00 | 0.00 | 0.00 | 93 | 1018.2 |
| 20260830230109 | 13 | 0 | 0.0 | 0.0 | 0.00 | 0.00 | 0.00 | 93 | 1018.2 |
| 20260830224635 | 13 | 0 | 0.0 | 0.0 | 0.00 | 0.00 | 0.00 | 93 | 1018.1 |
| 20260830223104 | 13 | 0 | 0.0 | 1.6 | 0.00 | 0.00 | 0.00 | 94 | 1018.0 |
| 20260830221620 | 12 | 0 | 0.0 | 0.0 | 0.00 | 0.00 | 0.00 | 93 | 1017.8 |
| 20260830220134 | 13 | 0 | 0.0 | 0.0 | 0.00 | 0.00 | 0.00 | 93 | 1017.7 |
| 20260830214606 | 13 | 0 | 0.0 | 0.0 | 0.00 | 0.00 | 0.00 | 93 | 1017.6 |
| 20260830213104 | 13 | 0 | 0.0 | 0.0 | 0.00 | 0.00 | 0.00 | 93 | 1017.4 |
| 20260830211605 | 13 | 0 | 0.0 | 0.0 | 0.00 | 0.00 | 0.00 | 93 | 1017.2 |
| 20260830210105 | 13 | 0 | 0.0 | 0.0 | 0.00 | 0.00 | 0.00 | 93 | 1017.3 |
| 20260830204606 | 13 | 0 | 0.0 | 0.0 | 0.00 | 0.00 | 0.00 | 93 | 1017.2 |
| 20260830203105 | 13 | 0 | 0.0 | 0.0 | 0.00 | 0.00 | 0.00 | 93 | 1017.2 |
| 20260830201606 | 13 | 0 | 0.0 | 0.0 | 0.00 | 0.00 | 0.00 | 93 | 1017.4 |
| 20260830200105 | 13 | 0 | 0.0 | 0.0 | 0.00 | 0.00 | 0.00 | 93 | 1017.6 |
| 20260830194610 | 13 | 0 | 0.0 | 1.6 | 0.00 | 0.00 | 0.00 | 93 | 1017.6 |
| 20260830193101 | 13 | 0 | 0.0 | 0.0 | 0.00 | 0.00 | 0.00 | 92 | 1017.7 |
| 20260830191605 | 13 | 0 | 0.0 | 0.0 | 0.00 | 0.00 | 0.00 | 93 | 1017.7 |
| 20260830190104 | 13 | 0 | 0.0 | 0.0 | 0.00 | 0.00 | 0.00 | 93 | 1018.0 |
| 20260830184605 | 13 | 0 | 1.6 | 3.2 | 0.00 | 0.00 | 0.00 | 92 | 1017.9 |
| 20260830183103 | 13 | 0 | 0.0 | 0.0 | 0.00 | 0.00 | 0.00 | 93 | 1017.7 |
| 20260830181600 | 13 | 0 | 0.0 | 0.0 | 0.00 | 0.00 | 0.00 | 92 | 1017.8 |
| 20260830180104 | 13 | 0 | 0.0 | 0.0 | 0.00 | 0.00 | 0.00 | 93 | 1017.9 |
| 20260830174603 | 13 | 0 | 0.0 | 0.0 | 0.00 | 0.00 | 0.00 | 92 | 1017.9 |
| 20260830173107 | 12 | 0 | 0.0 | 0.0 | 0.00 | 0.00 | 0.00 | 92 | 1018.1 |
| 20260830171612 | 12 | 0 | 0.0 | 0.0 | 0.00 | 0.00 | 0.00 | 92 | 1018.2 |
| 20260830170109 | 12 | 0 | 0.0 | 0.0 | 0.00 | 0.00 | 0.00 | 93 | 1018.2 |
| 20260830164612 | 12 | 0 | 0.0 | 0.0 | 0.00 | 0.00 | 0.00 | 92 | 1018.2 |
| 20260830163100 | 12 | 0 | 0.0 | 1.6 | 0.00 | 0.00 | 0.00 | 92 | 1018.3 |
| 20260830161614 | 12 | 0 | 0.0 | 0.0 | 0.00 | 0.00 | 0.00 | 92 | 1018.2 |
| 20260830160107 | 12 | 0 | 0.0 | 0.0 | 0.00 | 0.00 | 0.00 | 91 | 1018.3 |
| 20260830154608 | 12 | 0 | 0.0 | 0.0 | 0.00 | 0.00 | 0.00 | 92 | 1018.4 |
| 20260830153102 | 12 | 0 | 0.0 | 0.0 | 0.00 | 0.00 | 0.00 | 92 | 1018.5 |
| 20260830151608 | 12 | 0 | 0.0 | 0.0 | 0.00 | 0.00 | 0.00 | 91 | 1018.5 |
| 20260830150105 | 13 | 0 | 0.0 | 0.0 | 0.00 | 0.00 | 0.00 | 91 | 1018.6 |
| 20260830144607 | 13 | 0 | 0.0 | 0.0 | 0.00 | 0.00 | 0.00 | 91 | 1018.6 |
| 20260830143114 | 13 | 0 | 0.0 | 3.2 | 0.00 | 0.00 | 0.00 | 91 | 1018.7 |
| 20260830141609 | 13 | 0 | 0.0 | 0.0 | 0.00 | 0.00 | 0.00 | 91 | 1018.5 |
| 20260830140109 | 13 | 0 | 0.0 | 0.0 | 0.00 | 0.00 | 0.00 | 90 | 1018.5 |
| 20260830134607 | 13 | 0 | 0.0 | 0.0 | 0.00 | 0.00 | 0.00 | 90 | 1018.6 |
| 20260830133104 | 14 | 0 | 0.0 | 0.0 | 0.00 | 0.00 | 0.00 | 90 | 1018.7 |
| 20260830131606 | 14 | 0 | 0.0 | 0.0 | 0.00 | 0.00 | 0.00 | 90 | 1018.8 |
| 20260830130110 | 14 | 0 | 0.0 | 1.6 | 0.00 | 0.00 | 0.00 | 89 | 1018.8 |
| 20260830124559 | 15 | 0 | 0.0 | 0.0 | 0.00 | 0.00 | 0.00 | 89 | 1018.8 |
| 20260830123127 | 15 | 0 | 0.0 | 0.0 | 0.00 | 0.00 | 0.00 | 88 | 1018.8 |
| 20260830121608 | 15 | 0 | 0.0 | 1.6 | 0.00 | 0.00 | 0.00 | 89 | 1018.7 |